FW1972 Weather Reports


time (UTC)temp
F
wind
direction
speed
knots
gust
knots
rain 1hr
in
rain 24hr
in
rain mn
in
humidity
%
barometer
mb
20260507040100 61 221 0.0 0.0 0.00 0.00 0.00 52 1022.9
20260507034615 62 221 0.0 0.0 0.00 0.00 0.00 51 1022.7
20260507033059 62 221 0.0 0.0 0.00 0.00 0.00 50 1022.6
20260507031600 63 221 0.0 0.0 0.00 0.00 0.00 49 1022.4
20260507024604 64 221 0.0 0.0 0.00 0.00 0.00 46 1022.0
20260507023111 65 221 0.0 0.0 0.00 0.00 0.00 44 1022.0
20260507021558 66 212 0.0 0.0 0.00 0.00 0.00 44 1022.0
20260507020027 66 244 0.0 0.0 0.00 0.00 0.00 44 1021.8
20260507014539 67 285 0.0 0.0 0.00 0.00 0.00 43 1021.7
20260507011523 68 299 0.9 4.3 0.00 0.00 0.00 42 1021.7
20260507010009 69 215 0.0 3.5 0.00 0.00 0.00 42 1021.7
20260507004513 70 262 0.9 4.3 0.00 0.00 0.00 41 1021.8
20260507003007 71 327 2.6 7.0 0.00 0.00 0.00 40 1021.7
20260507001508 72 315 1.7 5.2 0.00 0.00 0.00 38 1021.7
20260507000019 73 224 0.9 7.0 0.00 0.00 0.00 38 1021.7
20260506234505 74 224 0.0 6.1 0.00 0.00 0.00 36 1021.6
20260506233004 75 296 0.9 6.1 0.00 0.00 0.00 36 1021.6
20260506231503 75 215 0.9 4.3 0.00 0.00 0.00 35 1021.7
20260506230002 75 169 1.7 7.8 0.00 0.00 0.00 35 1021.8
20260506224501 75 304 2.6 7.0 0.00 0.00 0.00 34 1021.8
20260506223127 75 175 0.0 4.3 0.00 0.00 0.00 34 1022.0
20260506221603 76 235 0.9 6.1 0.00 0.00 0.00 35 1022.2
20260506220057 76 124 0.9 7.0 0.00 0.00 0.00 35 1022.5
20260506214606 76 123 1.7 5.2 0.00 0.00 0.00 34 1022.6
20260506213053 77 228 0.9 5.2 0.00 0.00 0.00 34 1022.8
20260506211550 76 333 2.6 7.8 0.00 0.00 0.00 35 1022.8
20260506210051 76 220 1.7 7.0 0.00 0.00 0.00 35 1022.9
20260506204548 75 145 1.7 8.7 0.00 0.00 0.00 36 1022.8
20260506203047 74 284 2.6 11.3 0.00 0.00 0.00 35 1022.9
20260506201544 75 177 1.7 7.8 0.00 0.00 0.00 33 1023.1
20260506200112 75 311 3.5 7.0 0.00 0.00 0.00 32 1023.1
20260506194542 75 312 4.3 8.7 0.00 0.00 0.00 30 1023.2
20260506193042 76 295 0.9 4.3 0.00 0.00 0.00 30 1023.4
20260506191537 75 238 0.9 7.0 0.00 0.00 0.00 31 1023.4
20260506190036 74 192 1.7 5.2 0.00 0.00 0.00 30 1023.6
20260506184531 74 319 2.6 7.0 0.00 0.00 0.00 31 1023.7
20260506183030 73 331 2.6 4.3 0.00 0.00 0.00 31 1023.8
20260506181531 74 209 0.9 2.6 0.00 0.00 0.00 30 1023.9
20260506180124 73 295 0.9 4.3 0.00 0.00 0.00 34 1024.0
20260506174519 71 237 0.9 6.1 0.00 0.00 0.00 34 1023.9
20260506173015 72 289 1.7 4.3 0.00 0.00 0.00 34 1024.1
20260506171516 71 111 0.0 2.6 0.00 0.00 0.00 35 1024.0
20260506170009 70 309 0.9 3.5 0.00 0.00 0.00 35 1024.1
20260506164504 69 319 0.0 3.5 0.00 0.00 0.00 36 1024.1
20260506163107 68 226 0.0 3.5 0.00 0.00 0.00 37 1024.1
20260506161559 69 304 0.0 2.6 0.00 0.00 0.00 36 1024.1
20260506160106 69 248 0.0 0.9 0.00 0.00 0.00 37 1024.2
20260506154549 67 248 0.0 0.0 0.00 0.00 0.00 40 1024.2
20260506153045 65 248 0.0 0.0 0.00 0.00 0.00 44 1024.3
20260506151540 62 38 0.0 0.0 0.00 0.00 0.00 48 1024.3
20260506150037 59 41 0.0 0.0 0.00 0.00 0.00 53 1024.2
20260506144531 55 40 0.0 0.0 0.00 0.00 0.00 55 1024.5
20260506143026 52 171 0.0 0.0 0.00 0.00 0.00 61 1024.5
20260506141523 49 171 0.0 0.0 0.00 0.00 0.00 64 1024.5
20260506140020 48 171 0.0 0.0 0.00 0.00 0.00 65 1024.1
20260506134534 48 171 0.0 0.0 0.00 0.00 0.00 65 1024.2
20260506133017 47 171 0.0 0.0 0.00 0.00 0.00 65 1024.1
20260506131513 47 171 0.0 0.0 0.00 0.00 0.00 64 1024.2
20260506130011 47 171 0.0 0.0 0.00 0.00 0.00 64 1023.7
20260506124513 47 171 0.0 0.0 0.00 0.00 0.00 64 1023.6
20260506123009 48 171 0.0 0.0 0.00 0.00 0.00 64 1023.6
20260506121510 48 171 0.0 0.0 0.00 0.00 0.00 64 1023.5
20260506120011 48 171 0.0 0.0 0.00 0.00 0.00 63 1023.6
20260506114508 48 171 0.0 0.0 0.00 0.00 0.00 63 1023.5
20260506113007 48 171 0.0 0.0 0.00 0.00 0.00 63 1023.5
20260506111505 48 171 0.0 0.0 0.00 0.00 0.00 63 1023.3
20260506110011 48 171 0.0 0.0 0.00 0.00 0.00 63 1023.4
20260506104502 48 171 0.0 0.0 0.00 0.00 0.00 63 1023.5
20260506103002 49 171 0.0 0.0 0.00 0.00 0.00 63 1023.4
20260506101602 49 171 0.0 0.0 0.00 0.00 0.00 63 1023.4
20260506100104 49 171 0.0 0.0 0.00 0.00 0.00 63 1023.5
20260506094558 49 171 0.0 0.0 0.00 0.00 0.00 63 1023.6
20260506093059 49 171 0.0 0.0 0.00 0.00 0.00 63 1023.5
20260506091555 49 171 0.0 0.0 0.00 0.00 0.00 63 1023.5
20260506090053 49 171 0.0 0.0 0.00 0.00 0.00 62 1023.5
20260506084551 49 171 0.0 0.0 0.00 0.00 0.00 62 1023.6
20260506083108 50 171 0.0 0.0 0.00 0.00 0.00 62 1023.7
20260506081551 50 171 0.0 0.0 0.00 0.00 0.00 62 1023.8
20260506073043 51 171 0.0 0.0 0.00 0.00 0.00 61 1023.8
20260506071540 51 171 0.0 0.0 0.00 0.00 0.00 61 1023.8
20260506061539 52 171 0.0 0.0 0.00 0.00 0.00 59 1023.2
20260506044528 55 171 0.0 0.0 0.00 0.00 0.00 55 1022.3
20260506043026 56 171 0.0 0.0 0.00 0.00 0.00 55 1022.0
20260506041523 56 171 0.0 0.0 0.00 0.00 0.00 54 1021.8